Dixon AP, Dixon, WY, WY

7:40 PM MDT on March 22, 2017 (GMT -0600)
Dixon AP, Dixon, WY

Weather History for KDWX - March, 2014

Change the Weather History Date:

Sunday, March 9, 2014

  Actual Average (KCAG) Record (KCAG)
Temperature  
Mean Temperature 42 °F -  
Max Temperature 57 °F 39 °F 60 °F (2017)
Min Temperature 27 °F 14 °F -9 °F (2002)
Degree Days  
Heating Degree Days 23    
Moisture  
Dew Point 22 °F    
Average Humidity 54    
Maximum Humidity 80    
Minimum Humidity 20    
Precipitation  
Precipitation 0.00 in - - ()
Sea Level Pressure  
Sea Level Pressure 30.32 in    
Wind  
Wind Speed 7 mph (SSE)    
Max Wind Speed 21 mph    
Max Gust Speed 26 mph    
Visibility 10 miles    
Events      
Averages and records for this station are not official NWS values.
T = Trace of Precipitation, MM = Missing Value Source: NWS Daily Summary

Daily Weather History Graph

Daily Weather History Graph

Search for Another Location

Airport or City:

Trip Planner

Search our weather history database for the weather conditions in past years. The results will help you decide how hot, cold, wet, or windy it might be!

Date:

Astronomy

Mar. 09, 2014 Rise Set
Actual Time 7:31 AM MDT 7:10 PM MDT
Civil Twilight 7:03 AM MDT 7:37 PM MDT
Nautical Twilight 6:32 AM MDT 8:09 PM MDT
Astronomical Twilight 6:00 AM MDT 8:41 PM MDT
Moon 1:03 PM MDT (3/9) 3:01 AM MDT (3/9)
Length of Visible Light 12h 33m
Length of Day
11h 38m
First Quarter, 61% of the Moon is Illuminated
Mar 9
First Quarter
Mar 16
Full
Mar 23
Last Quarter
Mar 30
New
Apr 7
First Quarter

Hourly Weather History & Observations

Time (MDT) Temp. Windchill Dew Point Humidity Pressure Visibility Wind Dir Wind Speed Gust Speed Precip Events Conditions
12:15 AM 31.3 °F 24.7 °F 22.8 °F 71% 30.40 in 10.0 mi East 6.9 mph - N/A   Clear
12:35 AM 30.9 °F 23.5 °F 22.8 °F 72% 30.40 in 10.0 mi East 8.1 mph - N/A   Clear
12:55 AM 29.7 °F 26.1 °F 23.2 °F 77% 30.40 in 10.0 mi ENE 3.5 mph - N/A   Clear
1:15 AM 29.7 °F 22.8 °F 23.0 °F 76% 30.40 in 10.0 mi East 6.9 mph - N/A   Clear
1:35 AM 29.5 °F 24.5 °F 23.2 °F 77% 30.41 in 10.0 mi East 4.6 mph - N/A   Clear
1:55 AM 29.5 °F - 23.2 °F 77% 30.40 in 10.0 mi Calm Calm - N/A   Clear
3:15 AM 29.3 °F 25.6 °F 22.3 °F 75% 30.40 in 10.0 mi SE 3.5 mph - N/A   Clear
3:35 AM 28.6 °F 22.4 °F 22.6 °F 78% 30.39 in 10.0 mi SE 5.8 mph - N/A   Clear
3:55 AM 28.8 °F - 22.6 °F 78% 30.40 in 10.0 mi Calm Calm - N/A   Clear
4:15 AM 28.4 °F - 21.7 °F 76% 30.41 in 10.0 mi Calm Calm - N/A   Clear
4:35 AM 28.4 °F 20.4 °F 22.5 °F 78% 30.40 in 10.0 mi East 8.1 mph - N/A   Clear
4:55 AM 28.6 °F 22.4 °F 22.5 °F 78% 30.39 in 10.0 mi East 5.8 mph - N/A   Clear
5:15 AM 28.9 °F 18.6 °F 22.1 °F 76% 30.38 in 10.0 mi East 12.7 mph - N/A   Clear
5:35 AM 28.9 °F 18.2 °F 21.7 °F 74% 30.38 in 10.0 mi East 13.8 mph - N/A   Clear
5:55 AM 29.7 °F 23.7 °F 21.7 °F 72% 30.38 in 10.0 mi East 5.8 mph 10.4 mph N/A   Clear
6:15 AM 29.1 °F 22.1 °F 21.4 °F 73% 30.39 in 10.0 mi ESE 6.9 mph - N/A   Clear
6:35 AM 28.0 °F 24.2 °F 21.2 °F 76% 30.38 in 10.0 mi East 3.5 mph - N/A   Clear
6:55 AM 27.7 °F 23.8 °F 21.6 °F 78% 30.39 in 10.0 mi East 3.5 mph - N/A   Clear
7:15 AM 27.9 °F - 21.6 °F 77% 30.39 in 10.0 mi Calm Calm - N/A   Clear
7:35 AM 28.8 °F 21.7 °F 21.2 °F 73% 30.38 in 10.0 mi ESE 6.9 mph - N/A   Clear
7:55 AM 28.8 °F 25.0 °F 21.6 °F 74% 30.39 in 10.0 mi SE 3.5 mph - N/A   Clear
8:15 AM 30.2 °F 26.7 °F 21.9 °F 71% 30.39 in 10.0 mi ESE 3.5 mph - N/A   Clear
8:35 AM 31.6 °F 25.1 °F 21.9 °F 67% 30.40 in 10.0 mi SE 6.9 mph - N/A   Clear
8:55 AM 33.8 °F 28.6 °F 22.3 °F 63% 30.40 in 10.0 mi ESE 5.8 mph - N/A   Clear
9:15 AM 34.7 °F 28.1 °F 21.9 °F 60% 30.40 in 10.0 mi SE 8.1 mph - N/A   Clear
9:35 AM 35.4 °F 29.0 °F 22.1 °F 58% 30.38 in 10.0 mi ESE 8.1 mph - N/A   Clear
9:55 AM 38.5 °F 34.1 °F 21.4 °F 50% 30.39 in 10.0 mi ESE 5.8 mph - N/A   Clear
10:15 AM 40.3 °F - 20.5 °F 45% 30.38 in 10.0 mi Calm Calm - N/A   Clear
10:35 AM 42.3 °F 37.3 °F 23.4 °F 47% 30.38 in 10.0 mi SSW 8.1 mph - N/A   Clear
10:55 AM 45.9 °F 39.1 °F 20.5 °F 37% 30.38 in 10.0 mi SW 16.1 mph 20.7 mph N/A   Clear
11:15 AM 46.4 °F 40.1 °F 19.4 °F 34% 30.37 in 10.0 mi SSW 15.0 mph 21.9 mph N/A   Clear
11:35 AM 46.8 °F - 19.4 °F 34% 30.36 in 10.0 mi SW 19.6 mph 25.3 mph N/A   Clear
11:55 AM 47.8 °F - 20.1 °F 33% 30.36 in 10.0 mi SSW 15.0 mph 20.7 mph N/A   Clear
12:15 PM 48.6 °F - 20.5 °F 33% 30.35 in 10.0 mi SW 15.0 mph 20.7 mph N/A   Clear
12:35 PM 49.3 °F - 20.8 °F 33% 30.35 in 10.0 mi SSW 16.1 mph 26.5 mph N/A   Clear
12:55 PM 49.1 °F - 20.7 °F 33% 30.34 in 10.0 mi SSW 13.8 mph 24.2 mph N/A   Clear
1:15 PM 50.5 °F - 20.8 °F 31% 30.33 in 10.0 mi SSW 13.8 mph 19.6 mph N/A   Clear
1:35 PM 51.1 °F - 20.5 °F 30% 30.32 in 10.0 mi SW 17.3 mph 25.3 mph N/A   Clear
1:55 PM 52.9 °F - 21.6 °F 29% 30.31 in 10.0 mi SSW 18.4 mph 23.0 mph N/A   Clear
2:15 PM 54.0 °F - 22.1 °F 29% 30.30 in 10.0 mi SSW 15.0 mph 25.3 mph N/A   Clear
2:35 PM 54.9 °F - 22.6 °F 29% 30.29 in 10.0 mi SSW 15.0 mph 23.0 mph N/A   Clear
2:55 PM 55.4 °F - 21.9 °F 27% 30.27 in 10.0 mi SSW 12.7 mph 21.9 mph N/A   Clear
3:15 PM 55.4 °F - 21.6 °F 27% 30.26 in 10.0 mi SSW 10.4 mph 24.2 mph N/A   Clear
3:35 PM 56.3 °F - 22.1 °F 27% 30.25 in 10.0 mi SSW 16.1 mph 23.0 mph N/A   Clear
3:55 PM 55.6 °F - 21.6 °F 27% 30.25 in 10.0 mi SSW 17.3 mph 26.5 mph N/A   Clear
4:15 PM 55.0 °F - 20.7 °F 26% 30.24 in 10.0 mi SSW 11.5 mph 25.3 mph N/A   Clear
4:35 PM 57.4 °F - 16.0 °F 20% 30.24 in 10.0 mi SW 17.3 mph 24.2 mph N/A   Clear
4:55 PM 57.6 °F - 17.1 °F 21% 30.24 in 10.0 mi SW 20.7 mph 24.2 mph N/A   Clear
5:15 PM 55.9 °F - 17.2 °F 22% 30.24 in 10.0 mi SW 15.0 mph 24.2 mph N/A   Clear
5:35 PM 53.6 °F - 16.9 °F 24% 30.24 in 10.0 mi SW 13.8 mph 21.9 mph N/A   Clear
5:55 PM 53.2 °F - 17.2 °F 24% 30.24 in 10.0 mi SW 12.7 mph 19.6 mph N/A   Clear
6:15 PM 50.5 °F - 18.9 °F 29% 30.24 in 10.0 mi SSW 9.2 mph - N/A   Clear
6:35 PM 50.0 °F - 18.5 °F 29% 30.24 in 10.0 mi SSW 8.1 mph - N/A   Clear
6:55 PM 50.0 °F - 18.0 °F 28% 30.23 in 10.0 mi SSW 12.7 mph 16.1 mph N/A   Clear
7:15 PM 48.6 °F - 17.6 °F 29% 30.23 in 10.0 mi SSW 10.4 mph 16.1 mph N/A   Clear
7:35 PM 46.8 °F - 18.7 °F 33% 30.24 in 10.0 mi Calm Calm - N/A   Clear
7:55 PM 46.2 °F - 18.7 °F 33% 30.24 in 10.0 mi Calm Calm - N/A   Clear
8:15 PM 43.7 °F - 20.3 °F 39% 30.24 in 10.0 mi Calm Calm - N/A   Clear
8:35 PM 42.8 °F - 20.3 °F 41% 30.24 in 10.0 mi Calm Calm - N/A   Clear
8:55 PM 41.9 °F - 21.0 °F 43% 30.24 in 10.0 mi Calm Calm - N/A   Scattered Clouds
9:15 PM 41.2 °F - 21.7 °F 46% 30.24 in 10.0 mi Calm Calm - N/A   Overcast
9:35 PM 34.7 °F 31.8 °F 27.5 °F 75% 30.24 in 10.0 mi NE 3.5 mph - N/A   Overcast
9:55 PM 34.5 °F - 26.2 °F 72% 30.24 in 10.0 mi Calm Calm - N/A   Scattered Clouds
10:15 PM 34.5 °F - 26.2 °F 72% 30.24 in 10.0 mi Calm Calm - N/A   Clear
10:35 PM 34.0 °F 31.0 °F 25.2 °F 70% 30.24 in 10.0 mi East 3.5 mph - N/A   Clear
10:55 PM 33.4 °F - 26.1 °F 74% 30.24 in 10.0 mi Calm Calm - N/A   Clear
11:15 PM 32.7 °F 27.3 °F 24.8 °F 73% 30.24 in 10.0 mi SSE 5.8 mph - N/A   Clear
11:35 PM 32.0 °F - 26.4 °F 80% 30.24 in 10.0 mi Calm Calm - N/A   Clear
11:55 PM 32.0 °F - 26.2 °F 79% 30.24 in 10.0 mi Calm Calm - N/A   Clear
12:15 AM 32.2 °F - 25.7 °F 77% 30.24 in 10.0 mi Calm Calm - N/A   Clear
12:35 AM 32.2 °F 27.7 °F 26.1 °F 78% 30.24 in 10.0 mi NNE 4.6 mph - N/A   Clear
12:55 AM 32.2 °F - 25.9 °F 78% 30.24 in 10.0 mi Calm Calm - N/A   Clear